| time (UTC) | temp F | wind direction | speed MPH | gust MPH | rain 1hr in | rain 24hr in | rain mn in | humidity % | barometer mb |
| 20260901095312 | 44 | 226 | 0.0 | 0.0 | 0.00 | 0.00 | 0.00 | 93 | 1021.0 |
| 20260901094807 | 43 | 237 | 0.0 | 0.0 | 0.00 | 0.00 | 0.00 | 93 | 1021.0 |
| 20260901094302 | 43 | 237 | 0.0 | 0.0 | 0.00 | 0.00 | 0.00 | 93 | 1021.1 |
| 20260901093756 | 43 | 237 | 0.0 | 0.0 | 0.00 | 0.00 | 0.00 | 93 | 1020.9 |
| 20260901093255 | 43 | 246 | 0.0 | 0.0 | 0.00 | 0.00 | 0.00 | 93 | 1021.0 |
| 20260901092751 | 45 | 245 | 0.0 | 0.0 | 0.00 | 0.00 | 0.00 | 93 | 1020.9 |
| 20260901092247 | 44 | 185 | 1.0 | 1.0 | 0.00 | 0.00 | 0.00 | 93 | 1021.0 |
| 20260901091742 | 44 | 229 | 0.0 | 0.0 | 0.00 | 0.00 | 0.00 | 93 | 1020.9 |
| 20260901091238 | 43 | 240 | 0.0 | 0.0 | 0.00 | 0.00 | 0.00 | 93 | 1021.0 |
| 20260901090732 | 43 | 245 | 0.0 | 0.0 | 0.00 | 0.00 | 0.00 | 93 | 1020.8 |
| 20260901090227 | 43 | 247 | 0.0 | 0.0 | 0.00 | 0.00 | 0.00 | 92 | 1021.0 |
| 20260901085723 | 43 | 248 | 0.0 | 0.0 | 0.00 | 0.00 | 0.00 | 92 | 1020.9 |
| 20260901085218 | 43 | 248 | 0.0 | 0.0 | 0.00 | 0.00 | 0.00 | 92 | 1020.9 |
| 20260901084715 | 43 | 247 | 0.0 | 0.0 | 0.00 | 0.00 | 0.00 | 92 | 1021.0 |
| 20260901084211 | 44 | 271 | 0.0 | 0.0 | 0.00 | 0.00 | 0.00 | 92 | 1020.9 |
| 20260901083705 | 45 | 249 | 0.0 | 0.0 | 0.00 | 0.00 | 0.00 | 92 | 1021.0 |
| 20260901083204 | 46 | 250 | 0.0 | 0.0 | 0.00 | 0.00 | 0.00 | 92 | 1021.1 |
| 20260901082703 | 46 | 227 | 0.0 | 0.0 | 0.00 | 0.00 | 0.00 | 92 | 1021.1 |
| 20260901082159 | 45 | 227 | 0.0 | 0.0 | 0.00 | 0.00 | 0.00 | 92 | 1021.1 |
| 20260901081655 | 45 | 227 | 0.0 | 0.0 | 0.00 | 0.00 | 0.00 | 92 | 1021.1 |
| 20260901081154 | 46 | 227 | 0.0 | 0.0 | 0.00 | 0.00 | 0.00 | 92 | 1021.2 |
| 20260901080649 | 46 | 227 | 0.0 | 0.0 | 0.00 | 0.00 | 0.00 | 92 | 1021.0 |
| 20260901080148 | 45 | 223 | 0.0 | 0.0 | 0.00 | 0.00 | 0.00 | 92 | 1020.9 |
| 20260901075643 | 44 | 244 | 0.0 | 0.0 | 0.00 | 0.00 | 0.00 | 91 | 1020.9 |
| 20260901075143 | 45 | 245 | 0.0 | 0.0 | 0.00 | 0.00 | 0.00 | 91 | 1020.8 |
| 20260901074642 | 46 | 227 | 0.0 | 0.0 | 0.00 | 0.00 | 0.00 | 91 | 1020.7 |
| 20260901074137 | 47 | 242 | 0.0 | 0.0 | 0.00 | 0.00 | 0.00 | 91 | 1021.0 |
| 20260901073634 | 47 | 235 | 0.0 | 0.0 | 0.00 | 0.00 | 0.00 | 91 | 1020.8 |
| 20260901073129 | 46 | 246 | 0.0 | 0.0 | 0.00 | 0.00 | 0.00 | 91 | 1021.0 |
| 20260901072624 | 46 | 237 | 0.0 | 0.0 | 0.00 | 0.00 | 0.00 | 90 | 1021.1 |
| 20260901072119 | 47 | 237 | 0.0 | 0.0 | 0.00 | 0.00 | 0.00 | 90 | 1020.7 |
| 20260901071614 | 46 | 228 | 0.0 | 0.0 | 0.00 | 0.00 | 0.00 | 91 | 1020.7 |
| 20260901071113 | 46 | 247 | 0.0 | 0.0 | 0.00 | 0.00 | 0.00 | 90 | 1020.8 |
| 20260901070607 | 47 | 243 | 0.0 | 0.0 | 0.00 | 0.00 | 0.00 | 90 | 1020.7 |
| 20260901070103 | 47 | 251 | 0.0 | 0.0 | 0.00 | 0.00 | 0.00 | 90 | 1020.9 |
| 20260901065556 | 48 | 253 | 0.0 | 0.0 | 0.00 | 0.00 | 0.00 | 89 | 1020.8 |
| 20260901065051 | 48 | 226 | 0.0 | 0.0 | 0.00 | 0.00 | 0.00 | 90 | 1020.6 |
| 20260901064548 | 48 | 249 | 0.0 | 0.0 | 0.00 | 0.00 | 0.00 | 89 | 1020.7 |
| 20260901064044 | 49 | 216 | 1.0 | 1.0 | 0.00 | 0.00 | 0.00 | 89 | 1020.7 |
| 20260901063541 | 49 | 214 | 0.0 | 1.0 | 0.00 | 0.00 | 0.00 | 89 | 1020.8 |
| 20260901063037 | 49 | 175 | 2.0 | 2.0 | 0.00 | 0.00 | 0.00 | 88 | 1020.7 |
| 20260901062532 | 50 | 234 | 0.0 | 0.0 | 0.00 | 0.00 | 0.00 | 88 | 1020.6 |
| 20260901062028 | 50 | 242 | 0.0 | 0.0 | 0.00 | 0.00 | 0.00 | 87 | 1020.7 |
| 20260901061524 | 50 | 191 | 2.0 | 2.0 | 0.00 | 0.00 | 0.00 | 87 | 1020.6 |
| 20260901061019 | 51 | 204 | 1.0 | 1.0 | 0.00 | 0.00 | 0.00 | 85 | 1020.6 |
| 20260901060513 | 51 | 232 | 0.0 | 0.0 | 0.00 | 0.00 | 0.00 | 86 | 1020.7 |
| 20260901060008 | 51 | 205 | 1.0 | 1.0 | 0.00 | 0.00 | 0.00 | 84 | 1020.5 |
| 20260901055504 | 52 | 225 | 0.0 | 0.0 | 0.00 | 0.00 | 0.00 | 82 | 1020.6 |
| 20260901055000 | 52 | 221 | 0.0 | 0.0 | 0.00 | 0.00 | 0.00 | 81 | 1020.4 |
| 20260901054457 | 53 | 190 | 2.0 | 2.0 | 0.00 | 0.00 | 0.00 | 80 | 1020.5 |
| 20260901053953 | 53 | 182 | 1.0 | 1.0 | 0.00 | 0.00 | 0.00 | 79 | 1020.4 |
| 20260901053448 | 52 | 182 | 3.0 | 3.0 | 0.00 | 0.00 | 0.00 | 82 | 1020.6 |
| 20260901052943 | 52 | 200 | 1.0 | 1.0 | 0.00 | 0.00 | 0.00 | 83 | 1020.4 |
| 20260901052439 | 51 | 172 | 3.0 | 3.0 | 0.00 | 0.00 | 0.00 | 83 | 1020.5 |
| 20260901051932 | 51 | 243 | 0.0 | 1.0 | 0.00 | 0.00 | 0.00 | 83 | 1020.5 |
| 20260901051427 | 51 | 245 | 1.0 | 2.0 | 0.00 | 0.00 | 0.00 | 84 | 1020.5 |
| 20260901050922 | 52 | 231 | 0.0 | 0.0 | 0.00 | 0.00 | 0.00 | 83 | 1020.5 |
| 20260901050418 | 53 | 212 | 2.0 | 2.0 | 0.00 | 0.00 | 0.00 | 83 | 1020.5 |
| 20260901045917 | 53 | 187 | 2.0 | 2.0 | 0.00 | 0.00 | 0.00 | 82 | 1020.6 |
| 20260901045412 | 53 | 205 | 1.0 | 1.0 | 0.00 | 0.00 | 0.00 | 82 | 1020.5 |
| 20260901044907 | 53 | 204 | 1.0 | 1.0 | 0.00 | 0.00 | 0.00 | 81 | 1020.2 |
| 20260901044403 | 53 | 226 | 0.0 | 0.0 | 0.00 | 0.00 | 0.00 | 81 | 1020.2 |
| 20260901043859 | 52 | 193 | 2.0 | 2.0 | 0.00 | 0.00 | 0.00 | 83 | 1020.6 |
| 20260901043355 | 52 | 228 | 0.0 | 0.0 | 0.00 | 0.00 | 0.00 | 82 | 1020.2 |
| 20260901042855 | 53 | 207 | 1.0 | 1.0 | 0.00 | 0.00 | 0.00 | 80 | 1020.4 |
| 20260901042349 | 53 | 219 | 0.0 | 1.0 | 0.00 | 0.00 | 0.00 | 80 | 1020.4 |
| 20260901041845 | 53 | 224 | 0.0 | 0.0 | 0.00 | 0.00 | 0.00 | 81 | 1020.4 |
| 20260901041339 | 54 | 236 | 0.0 | 0.0 | 0.00 | 0.00 | 0.00 | 80 | 1020.2 |
| 20260901040834 | 54 | 240 | 0.0 | 0.0 | 0.00 | 0.00 | 0.00 | 80 | 1020.4 |
| 20260901040333 | 54 | 241 | 0.0 | 0.0 | 0.00 | 0.00 | 0.00 | 78 | 1020.4 |
| 20260901035832 | 54 | 256 | 0.0 | 0.0 | 0.00 | 0.00 | 0.00 | 77 | 1020.1 |
| 20260901035331 | 55 | 238 | 0.0 | 0.0 | 0.00 | 0.00 | 0.00 | 77 | 1020.4 |
| 20260901034830 | 55 | 230 | 0.0 | 0.0 | 0.00 | 0.00 | 0.00 | 77 | 1020.4 |
| 20260901034326 | 56 | 225 | 0.0 | 0.0 | 0.00 | 0.00 | 0.00 | 76 | 1020.2 |
| 20260901033825 | 55 | 229 | 0.0 | 0.0 | 0.00 | 0.00 | 0.00 | 78 | 1020.2 |
| 20260901033325 | 56 | 232 | 0.0 | 0.0 | 0.00 | 0.00 | 0.00 | 77 | 1020.1 |
| 20260901032823 | 56 | 238 | 0.0 | 0.0 | 0.00 | 0.00 | 0.00 | 76 | 1020.1 |
| 20260901032323 | 57 | 249 | 0.0 | 0.0 | 0.00 | 0.00 | 0.00 | 76 | 1020.1 |
| 20260901031818 | 57 | 227 | 0.0 | 0.0 | 0.00 | 0.00 | 0.00 | 75 | 1020.0 |
| 20260901031314 | 57 | 228 | 0.0 | 0.0 | 0.00 | 0.00 | 0.00 | 75 | 1020.1 |
| 20260901030813 | 58 | 226 | 0.0 | 0.0 | 0.00 | 0.00 | 0.00 | 74 | 1020.2 |
| 20260901030309 | 58 | 231 | 0.0 | 0.0 | 0.00 | 0.00 | 0.00 | 75 | 1020.1 |
| 20260901025808 | 58 | 242 | 0.0 | 0.0 | 0.00 | 0.00 | 0.00 | 73 | 1020.1 |
| 20260901025305 | 59 | 229 | 0.0 | 0.0 | 0.00 | 0.00 | 0.00 | 72 | 1020.1 |
| 20260901024758 | 60 | 234 | 0.0 | 0.0 | 0.00 | 0.00 | 0.00 | 71 | 1020.1 |
| 20260901024257 | 60 | 234 | 0.0 | 0.0 | 0.00 | 0.00 | 0.00 | 65 | 1019.7 |
| 20260901023755 | 60 | 229 | 0.0 | 0.0 | 0.00 | 0.00 | 0.00 | 64 | 1020.0 |
| 20260901023250 | 61 | 242 | 0.0 | 0.0 | 0.00 | 0.00 | 0.00 | 62 | 1019.7 |
| 20260901022746 | 62 | 248 | 0.0 | 0.0 | 0.00 | 0.00 | 0.00 | 60 | 1019.6 |
| 20260901022241 | 62 | 246 | 0.0 | 0.0 | 0.00 | 0.00 | 0.00 | 58 | 1019.7 |
| 20260901021736 | 64 | 237 | 0.0 | 0.0 | 0.00 | 0.00 | 0.00 | 60 | 1019.7 |
| 20260901021232 | 66 | 235 | 0.0 | 0.0 | 0.00 | 0.00 | 0.00 | 60 | 1019.6 |
| 20260901020727 | 66 | 257 | 0.0 | 0.0 | 0.00 | 0.00 | 0.00 | 48 | 1019.5 |
| 20260901020222 | 67 | 262 | 0.0 | 0.0 | 0.00 | 0.00 | 0.00 | 48 | 1019.7 |
| 20260901015717 | 68 | 254 | 0.0 | 0.0 | 0.00 | 0.00 | 0.00 | 48 | 1019.4 |
| 20260901015213 | 69 | 259 | 1.0 | 1.0 | 0.00 | 0.00 | 0.00 | 45 | 1019.4 |
| 20260901014712 | 70 | 272 | 1.0 | 1.0 | 0.00 | 0.00 | 0.00 | 42 | 1019.6 |
| 20260901014209 | 72 | 318 | 1.0 | 1.0 | 0.00 | 0.00 | 0.00 | 39 | 1019.2 |
| 20260901013704 | 73 | 331 | 2.0 | 2.0 | 0.00 | 0.00 | 0.00 | 39 | 1019.6 |
| 20260901013200 | 75 | 335 | 3.0 | 3.0 | 0.00 | 0.00 | 0.00 | 38 | 1019.6 |
| 20260901012655 | 76 | 335 | 1.0 | 2.0 | 0.00 | 0.00 | 0.00 | 39 | 1019.5 |
| 20260901012149 | 77 | 330 | 4.0 | 5.0 | 0.00 | 0.00 | 0.00 | 36 | 1019.6 |
| 20260901011645 | 78 | 330 | 2.0 | 2.0 | 0.00 | 0.00 | 0.00 | 37 | 1019.4 |
| 20260901011144 | 79 | 284 | 2.0 | 2.0 | 0.00 | 0.00 | 0.00 | 34 | 1019.5 |
| 20260901010639 | 79 | 16 | 5.0 | 5.0 | 0.00 | 0.00 | 0.00 | 32 | 1019.5 |
| 20260901010139 | 79 | 351 | 4.0 | 5.0 | 0.00 | 0.00 | 0.00 | 32 | 1019.7 |
| 20260901005638 | 80 | 337 | 3.0 | 3.0 | 0.00 | 0.00 | 0.00 | 31 | 1019.5 |
| 20260901005134 | 80 | 342 | 3.0 | 3.0 | 0.00 | 0.00 | 0.00 | 29 | 1019.4 |
| 20260901004633 | 80 | 332 | 4.0 | 5.0 | 0.00 | 0.00 | 0.00 | 28 | 1019.6 |
| 20260901004128 | 81 | 339 | 4.0 | 5.0 | 0.00 | 0.00 | 0.00 | 28 | 1020.0 |
| 20260901003623 | 81 | 290 | 1.0 | 1.0 | 0.00 | 0.00 | 0.00 | 28 | 1019.6 |
| 20260901003122 | 81 | 318 | 3.0 | 5.0 | 0.00 | 0.00 | 0.00 | 27 | 1019.8 |
| 20260901002622 | 81 | 282 | 2.0 | 2.0 | 0.00 | 0.00 | 0.00 | 28 | 1019.9 |
| 20260901002116 | 81 | 297 | 2.0 | 2.0 | 0.00 | 0.00 | 0.00 | 27 | 1019.9 |
| 20260901001611 | 81 | 339 | 2.0 | 3.0 | 0.00 | 0.00 | 0.00 | 27 | 1020.1 |
| 20260901001107 | 81 | 283 | 0.0 | 0.0 | 0.00 | 0.00 | 0.00 | 26 | 1020.1 |
| 20260901000602 | 82 | 257 | 1.0 | 1.0 | 0.00 | 0.00 | 0.00 | 26 | 1020.2 |
| 20260901000057 | 82 | 342 | 1.0 | 2.0 | 0.00 | 0.00 | 0.00 | 26 | 1020.0 |
| 20260831235550 | 82 | 341 | 3.0 | 3.0 | 0.00 | 0.00 | 0.00 | 27 | 1020.2 |
| 20260831235047 | 81 | 237 | 0.0 | 0.0 | 0.00 | 0.00 | 0.00 | 27 | 1020.5 |
| 20260831234540 | 82 | 267 | 2.0 | 2.0 | 0.00 | 0.00 | 0.00 | 26 | 1020.4 |
| 20260831234036 | 83 | 254 | 1.0 | 2.0 | 0.00 | 0.00 | 0.00 | 26 | 1020.6 |
| 20260831233531 | 81 | 266 | 0.0 | 0.0 | 0.00 | 0.00 | 0.00 | 27 | 1020.4 |
| 20260831233027 | 82 | 177 | 0.0 | 1.0 | 0.00 | 0.00 | 0.00 | 25 | 1020.7 |
| 20260831232522 | 81 | 358 | 3.0 | 3.0 | 0.00 | 0.00 | 0.00 | 26 | 1020.7 |
| 20260831232018 | 82 | 299 | 2.0 | 2.0 | 0.00 | 0.00 | 0.00 | 28 | 1020.7 |
| 20260831231515 | 82 | 289 | 4.0 | 5.0 | 0.00 | 0.00 | 0.00 | 26 | 1020.9 |
| 20260831231010 | 82 | 252 | 0.0 | 1.0 | 0.00 | 0.00 | 0.00 | 26 | 1021.0 |
| 20260831230505 | 81 | 180 | 1.0 | 2.0 | 0.00 | 0.00 | 0.00 | 25 | 1021.0 |
| 20260831225959 | 81 | 278 | 3.0 | 3.0 | 0.00 | 0.00 | 0.00 | 26 | 1021.1 |
| 20260831225455 | 81 | 245 | 1.0 | 1.0 | 0.00 | 0.00 | 0.00 | 27 | 1021.1 |
| 20260831224954 | 82 | 337 | 2.0 | 3.0 | 0.00 | 0.00 | 0.00 | 27 | 1021.3 |
| 20260831224449 | 82 | 256 | 1.0 | 1.0 | 0.00 | 0.00 | 0.00 | 26 | 1021.0 |
| 20260831223944 | 81 | 246 | 1.0 | 1.0 | 0.00 | 0.00 | 0.00 | 26 | 1021.2 |
| 20260831223439 | 80 | 160 | 2.0 | 2.0 | 0.00 | 0.00 | 0.00 | 26 | 1021.5 |
| 20260831222936 | 80 | 224 | 1.0 | 3.0 | 0.00 | 0.00 | 0.00 | 26 | 1021.3 |
| 20260831222431 | 81 | 200 | 2.0 | 3.0 | 0.00 | 0.00 | 0.00 | 26 | 1021.6 |
| 20260831221926 | 79 | 14 | 2.0 | 2.0 | 0.00 | 0.00 | 0.00 | 26 | 1021.6 |
| 20260831221422 | 79 | 57 | 4.0 | 5.0 | 0.00 | 0.00 | 0.00 | 27 | 1021.7 |
| 20260831220917 | 80 | 354 | 4.0 | 5.0 | 0.00 | 0.00 | 0.00 | 27 | 1021.8 |
| 20260831220412 | 80 | 260 | 1.0 | 2.0 | 0.00 | 0.00 | 0.00 | 27 | 1021.8 |
| 20260831215907 | 80 | 142 | 3.0 | 3.0 | 0.00 | 0.00 | 0.00 | 27 | 1021.9 |
| 20260831215403 | 79 | 242 | 2.0 | 2.0 | 0.00 | 0.00 | 0.00 | 27 | 1022.2 |
| 20260831214859 | 80 | 341 | 5.0 | 6.0 | 0.00 | 0.00 | 0.00 | 28 | 1021.9 |
| 20260831214356 | 78 | 226 | 0.0 | 0.0 | 0.00 | 0.00 | 0.00 | 27 | 1022.1 |
| 20260831213852 | 79 | 247 | 3.0 | 5.0 | 0.00 | 0.00 | 0.00 | 27 | 1022.2 |
| 20260831213348 | 78 | 297 | 2.0 | 2.0 | 0.00 | 0.00 | 0.00 | 26 | 1022.1 |
| 20260831212843 | 79 | 251 | 0.0 | 1.0 | 0.00 | 0.00 | 0.00 | 28 | 1022.3 |
| 20260831212340 | 79 | 209 | 1.0 | 2.0 | 0.00 | 0.00 | 0.00 | 27 | 1022.5 |
| 20260831211838 | 78 | 242 | 1.0 | 1.0 | 0.00 | 0.00 | 0.00 | 27 | 1022.6 |
| 20260831211333 | 78 | 241 | 0.0 | 1.0 | 0.00 | 0.00 | 0.00 | 27 | 1022.7 |
| 20260831210833 | 78 | 293 | 4.0 | 5.0 | 0.00 | 0.00 | 0.00 | 26 | 1022.5 |
| 20260831210329 | 77 | 323 | 2.0 | 2.0 | 0.00 | 0.00 | 0.00 | 29 | 1022.7 |
| 20260831205829 | 77 | 278 | 1.0 | 3.0 | 0.00 | 0.00 | 0.00 | 28 | 1022.8 |
| 20260831205326 | 77 | 193 | 3.0 | 3.0 | 0.00 | 0.00 | 0.00 | 26 | 1023.0 |
| 20260831204826 | 77 | 171 | 3.0 | 5.0 | 0.00 | 0.00 | 0.00 | 28 | 1023.0 |
| 20260831204324 | 76 | 285 | 4.0 | 6.0 | 0.00 | 0.00 | 0.00 | 29 | 1023.1 |
| 20260831203824 | 77 | 221 | 2.0 | 2.0 | 0.00 | 0.00 | 0.00 | 27 | 1022.8 |
| 20260831203319 | 75 | 252 | 0.0 | 1.0 | 0.00 | 0.00 | 0.00 | 28 | 1023.1 |
| 20260831202817 | 76 | 280 | 3.0 | 3.0 | 0.00 | 0.00 | 0.00 | 29 | 1023.2 |
| 20260831202313 | 75 | 241 | 1.0 | 1.0 | 0.00 | 0.00 | 0.00 | 29 | 1023.3 |
| 20260831201812 | 75 | 266 | 4.0 | 6.0 | 0.00 | 0.00 | 0.00 | 29 | 1023.4 |
| 20260831201311 | 75 | 207 | 0.0 | 0.0 | 0.00 | 0.00 | 0.00 | 30 | 1023.3 |
| 20260831200807 | 75 | 309 | 2.0 | 2.0 | 0.00 | 0.00 | 0.00 | 31 | 1023.4 |
| 20260831200302 | 74 | 244 | 0.0 | 0.0 | 0.00 | 0.00 | 0.00 | 31 | 1023.7 |
| 20260831195757 | 74 | 45 | 1.0 | 2.0 | 0.00 | 0.00 | 0.00 | 32 | 1023.6 |
| 20260831195253 | 73 | 201 | 1.0 | 2.0 | 0.00 | 0.00 | 0.00 | 31 | 1023.6 |
| 20260831194748 | 73 | 183 | 2.0 | 2.0 | 0.00 | 0.00 | 0.00 | 32 | 1024.0 |
| 20260831194244 | 74 | 187 | 0.0 | 1.0 | 0.00 | 0.00 | 0.00 | 33 | 1023.7 |
| 20260831193743 | 72 | 278 | 1.0 | 2.0 | 0.00 | 0.00 | 0.00 | 30 | 1024.0 |
| 20260831193238 | 71 | 333 | 3.0 | 3.0 | 0.00 | 0.00 | 0.00 | 33 | 1024.0 |
| 20260831192733 | 71 | 236 | 0.0 | 1.0 | 0.00 | 0.00 | 0.00 | 31 | 1024.2 |
| 20260831192228 | 72 | 91 | 2.0 | 3.0 | 0.00 | 0.00 | 0.00 | 32 | 1024.3 |
| 20260831191724 | 71 | 205 | 0.0 | 1.0 | 0.00 | 0.00 | 0.00 | 32 | 1024.3 |
| 20260831191220 | 70 | 134 | 3.0 | 3.0 | 0.00 | 0.00 | 0.00 | 34 | 1024.2 |
| 20260831190715 | 69 | 111 | 2.0 | 2.0 | 0.00 | 0.00 | 0.00 | 32 | 1024.8 |
| 20260831190215 | 69 | 210 | 2.0 | 2.0 | 0.00 | 0.00 | 0.00 | 31 | 1024.7 |
| 20260831185710 | 69 | 214 | 2.0 | 3.0 | 0.00 | 0.00 | 0.00 | 36 | 1024.7 |
| 20260831185205 | 70 | 222 | 1.0 | 2.0 | 0.00 | 0.00 | 0.00 | 34 | 1024.9 |
| 20260831184704 | 69 | 203 | 3.0 | 3.0 | 0.00 | 0.00 | 0.00 | 33 | 1025.4 |
| 20260831184201 | 69 | 104 | 0.0 | 1.0 | 0.00 | 0.00 | 0.00 | 35 | 1025.0 |
| 20260831183700 | 68 | 245 | 0.0 | 0.0 | 0.00 | 0.00 | 0.00 | 34 | 1025.2 |
| 20260831183200 | 68 | 218 | 1.0 | 2.0 | 0.00 | 0.00 | 0.00 | 37 | 1025.3 |
| 20260831182659 | 67 | 196 | 1.0 | 2.0 | 0.00 | 0.00 | 0.00 | 38 | 1025.4 |
| 20260831182155 | 67 | 283 | 0.0 | 1.0 | 0.00 | 0.00 | 0.00 | 40 | 1025.4 |
| 20260831181649 | 65 | 273 | 1.0 | 1.0 | 0.00 | 0.00 | 0.00 | 40 | 1025.5 |
| 20260831181149 | 66 | 75 | 1.0 | 2.0 | 0.00 | 0.00 | 0.00 | 40 | 1025.8 |
| 20260831180644 | 65 | 159 | 2.0 | 2.0 | 0.00 | 0.00 | 0.00 | 40 | 1025.9 |
| 20260831180140 | 65 | 104 | 1.0 | 1.0 | 0.00 | 0.00 | 0.00 | 41 | 1025.7 |
| 20260831175634 | 65 | 254 | 2.0 | 2.0 | 0.00 | 0.00 | 0.00 | 42 | 1026.1 |
| 20260831175131 | 64 | 235 | 1.0 | 1.0 | 0.00 | 0.00 | 0.00 | 42 | 1026.2 |
| 20260831174631 | 63 | 214 | 1.0 | 2.0 | 0.00 | 0.00 | 0.00 | 43 | 1026.4 |
| 20260831174126 | 64 | 118 | 1.0 | 2.0 | 0.00 | 0.00 | 0.00 | 43 | 1026.4 |
| 20260831173624 | 64 | 183 | 1.0 | 2.0 | 0.00 | 0.00 | 0.00 | 43 | 1026.4 |
| 20260831173121 | 62 | 37 | 0.0 | 0.0 | 0.00 | 0.00 | 0.00 | 48 | 1026.3 |
| 20260831172620 | 62 | 245 | 0.0 | 0.0 | 0.00 | 0.00 | 0.00 | 48 | 1026.8 |
| 20260831172120 | 61 | 207 | 1.0 | 1.0 | 0.00 | 0.00 | 0.00 | 49 | 1026.3 |
| 20260831171616 | 60 | 216 | 2.0 | 2.0 | 0.00 | 0.00 | 0.00 | 47 | 1026.6 |
| 20260831171113 | 60 | 232 | 2.0 | 2.0 | 0.00 | 0.00 | 0.00 | 48 | 1026.6 |
| 20260831170609 | 60 | 251 | 0.0 | 1.0 | 0.00 | 0.00 | 0.00 | 50 | 1026.9 |
| 20260831170106 | 59 | 245 | 0.0 | 0.0 | 0.00 | 0.00 | 0.00 | 50 | 1026.9 |
| 20260831165601 | 59 | 192 | 4.0 | 5.0 | 0.00 | 0.00 | 0.00 | 51 | 1026.9 |
| 20260831165058 | 58 | 235 | 0.0 | 0.0 | 0.00 | 0.00 | 0.00 | 51 | 1027.1 |
| 20260831164553 | 58 | 272 | 3.0 | 3.0 | 0.00 | 0.00 | 0.00 | 51 | 1027.2 |
| 20260831164049 | 57 | 294 | 0.0 | 0.0 | 0.00 | 0.00 | 0.00 | 55 | 1026.9 |
| 20260831163543 | 57 | 244 | 1.0 | 1.0 | 0.00 | 0.00 | 0.00 | 55 | 1027.4 |
| 20260831163039 | 58 | 243 | 1.0 | 1.0 | 0.00 | 0.00 | 0.00 | 55 | 1027.2 |
| 20260831162538 | 57 | 6 | 0.0 | 1.0 | 0.00 | 0.00 | 0.00 | 55 | 1027.3 |
| 20260831162036 | 56 | 199 | 0.0 | 0.0 | 0.00 | 0.00 | 0.00 | 55 | 1027.5 |
| 20260831161532 | 55 | 241 | 0.0 | 1.0 | 0.00 | 0.00 | 0.00 | 56 | 1027.3 |
| 20260831161029 | 55 | 243 | 0.0 | 0.0 | 0.00 | 0.00 | 0.00 | 60 | 1027.5 |
| 20260831160527 | 54 | 240 | 0.0 | 0.0 | 0.00 | 0.00 | 0.00 | 64 | 1027.4 |
| 20260831160024 | 54 | 182 | 0.0 | 0.0 | 0.00 | 0.00 | 0.00 | 65 | 1027.4 |
| 20260831155518 | 53 | 241 | 0.0 | 1.0 | 0.00 | 0.00 | 0.00 | 66 | 1027.6 |
| 20260831155013 | 52 | 197 | 1.0 | 1.0 | 0.00 | 0.00 | 0.00 | 66 | 1027.8 |
| 20260831154509 | 52 | 235 | 1.0 | 1.0 | 0.00 | 0.00 | 0.00 | 65 | 1027.8 |
| 20260831154008 | 52 | 212 | 0.0 | 0.0 | 0.00 | 0.00 | 0.00 | 68 | 1027.9 |
| 20260831153503 | 51 | 226 | 0.0 | 0.0 | 0.00 | 0.00 | 0.00 | 67 | 1027.9 |
| 20260831153000 | 51 | 195 | 0.0 | 0.0 | 0.00 | 0.00 | 0.00 | 70 | 1027.8 |
| 20260831152455 | 49 | 229 | 0.0 | 0.0 | 0.00 | 0.00 | 0.00 | 74 | 1027.8 |
| 20260831151950 | 47 | 215 | 0.0 | 0.0 | 0.00 | 0.00 | 0.00 | 79 | 1028.0 |
| 20260831151449 | 45 | 238 | 0.0 | 0.0 | 0.00 | 0.00 | 0.00 | 82 | 1028.1 |
| 20260831150944 | 45 | 259 | 1.0 | 1.0 | 0.00 | 0.00 | 0.00 | 87 | 1027.9 |
| 20260831150440 | 44 | 268 | 1.0 | 1.0 | 0.00 | 0.00 | 0.00 | 90 | 1028.0 |
| 20260831145939 | 44 | 206 | 1.0 | 2.0 | 0.00 | 0.00 | 0.00 | 92 | 1028.1 |
| 20260831145435 | 44 | 237 | 0.0 | 0.0 | 0.00 | 0.00 | 0.00 | 93 | 1028.1 |
| 20260831144931 | 42 | 216 | 0.0 | 0.0 | 0.00 | 0.00 | 0.00 | 94 | 1027.9 |
| 20260831144426 | 42 | 196 | 1.0 | 2.0 | 0.00 | 0.00 | 0.00 | 94 | 1028.1 |
| 20260831143921 | 42 | 208 | 1.0 | 1.0 | 0.00 | 0.00 | 0.00 | 94 | 1028.0 |
| 20260831143416 | 42 | 234 | 0.0 | 0.0 | 0.00 | 0.00 | 0.00 | 94 | 1028.0 |
| 20260831142912 | 42 | 241 | 0.0 | 0.0 | 0.00 | 0.00 | 0.00 | 94 | 1027.8 |
| 20260831142408 | 41 | 234 | 0.0 | 0.0 | 0.00 | 0.00 | 0.00 | 94 | 1027.8 |
| 20260831141902 | 40 | 228 | 0.0 | 0.0 | 0.00 | 0.00 | 0.00 | 94 | 1027.8 |
| 20260831141356 | 40 | 249 | 0.0 | 0.0 | 0.00 | 0.00 | 0.00 | 94 | 1027.6 |
| 20260831140851 | 39 | 249 | 0.0 | 0.0 | 0.00 | 0.00 | 0.00 | 94 | 1027.9 |
| 20260831140345 | 39 | 249 | 0.0 | 0.0 | 0.00 | 0.00 | 0.00 | 94 | 1027.8 |
| 20260831135844 | 38 | 249 | 0.0 | 0.0 | 0.00 | 0.00 | 0.00 | 94 | 1027.8 |
| 20260831135334 | 37 | 249 | 0.0 | 0.0 | 0.00 | 0.00 | 0.00 | 94 | 1027.8 |
| 20260831134829 | 37 | 249 | 0.0 | 0.0 | 0.00 | 0.00 | 0.00 | 94 | 1027.6 |
| 20260831134326 | 37 | 249 | 0.0 | 0.0 | 0.00 | 0.00 | 0.00 | 94 | 1027.6 |
| 20260831133824 | 36 | 250 | 0.0 | 0.0 | 0.00 | 0.00 | 0.00 | 94 | 1027.5 |
| 20260831133324 | 36 | 250 | 0.0 | 0.0 | 0.00 | 0.00 | 0.00 | 93 | 1027.5 |
| 20260831132820 | 36 | 249 | 0.0 | 0.0 | 0.00 | 0.00 | 0.00 | 93 | 1027.5 |
| 20260831132315 | 36 | 249 | 0.0 | 0.0 | 0.00 | 0.00 | 0.00 | 93 | 1027.5 |
| 20260831131809 | 35 | 253 | 0.0 | 0.0 | 0.00 | 0.00 | 0.00 | 93 | 1027.4 |
| 20260831131305 | 36 | 259 | 0.0 | 0.0 | 0.00 | 0.00 | 0.00 | 93 | 1027.4 |
| 20260831130759 | 36 | 249 | 0.0 | 0.0 | 0.00 | 0.00 | 0.00 | 93 | 1027.2 |
| 20260831130255 | 36 | 246 | 0.0 | 0.0 | 0.00 | 0.00 | 0.00 | 93 | 1027.5 |
| 20260831125754 | 36 | 238 | 0.0 | 0.0 | 0.00 | 0.00 | 0.00 | 93 | 1027.4 |
| 20260831125250 | 36 | 238 | 0.0 | 0.0 | 0.00 | 0.00 | 0.00 | 93 | 1027.2 |
| 20260831124744 | 36 | 238 | 0.0 | 0.0 | 0.00 | 0.00 | 0.00 | 93 | 1027.1 |
| 20260831124241 | 36 | 237 | 0.0 | 0.0 | 0.00 | 0.00 | 0.00 | 93 | 1027.0 |
| 20260831123741 | 36 | 253 | 0.0 | 0.0 | 0.00 | 0.00 | 0.00 | 93 | 1027.2 |
| 20260831123240 | 36 | 257 | 0.0 | 0.0 | 0.00 | 0.00 | 0.00 | 93 | 1027.2 |
| 20260831122739 | 36 | 268 | 0.0 | 0.0 | 0.00 | 0.00 | 0.00 | 93 | 1027.2 |
| 20260831122235 | 37 | 248 | 0.0 | 0.0 | 0.00 | 0.00 | 0.00 | 93 | 1027.2 |
| 20260831121734 | 37 | 247 | 0.0 | 0.0 | 0.00 | 0.00 | 0.00 | 93 | 1027.3 |
| 20260831121231 | 37 | 254 | 0.0 | 0.0 | 0.00 | 0.00 | 0.00 | 93 | 1027.2 |
| 20260831120726 | 37 | 254 | 0.0 | 0.0 | 0.00 | 0.00 | 0.00 | 93 | 1027.0 |
| 20260831120221 | 37 | 254 | 0.0 | 0.0 | 0.00 | 0.00 | 0.00 | 93 | 1026.9 |
| 20260831115717 | 37 | 264 | 0.0 | 0.0 | 0.00 | 0.00 | 0.00 | 93 | 1027.0 |
| 20260831115213 | 38 | 235 | 0.0 | 0.0 | 0.00 | 0.00 | 0.00 | 93 | 1026.9 |
| 20260831114712 | 37 | 228 | 0.0 | 0.0 | 0.00 | 0.00 | 0.00 | 93 | 1027.0 |
| 20260831114211 | 37 | 234 | 0.0 | 0.0 | 0.00 | 0.00 | 0.00 | 93 | 1026.6 |
| 20260831113707 | 37 | 244 | 0.0 | 0.0 | 0.00 | 0.00 | 0.00 | 93 | 1026.8 |
| 20260831113201 | 37 | 250 | 0.0 | 0.0 | 0.00 | 0.00 | 0.00 | 92 | 1026.8 |
| 20260831112700 | 36 | 250 | 0.0 | 0.0 | 0.00 | 0.00 | 0.00 | 92 | 1026.8 |
| 20260831112156 | 36 | 250 | 0.0 | 0.0 | 0.00 | 0.00 | 0.00 | 92 | 1026.9 |
| 20260831111651 | 37 | 243 | 0.0 | 1.0 | 0.00 | 0.00 | 0.00 | 92 | 1026.8 |
| 20260831111148 | 38 | 259 | 0.0 | 0.0 | 0.00 | 0.00 | 0.00 | 92 | 1027.1 |
| 20260831110643 | 38 | 240 | 0.0 | 0.0 | 0.00 | 0.00 | 0.00 | 92 | 1026.9 |
| 20260831110138 | 37 | 238 | 0.0 | 0.0 | 0.00 | 0.00 | 0.00 | 92 | 1026.8 |
| 20260831105637 | 38 | 254 | 0.0 | 0.0 | 0.00 | 0.00 | 0.00 | 92 | 1026.6 |
| 20260831105132 | 38 | 254 | 0.0 | 0.0 | 0.00 | 0.00 | 0.00 | 92 | 1026.9 |
| 20260831104627 | 38 | 267 | 0.0 | 0.0 | 0.00 | 0.00 | 0.00 | 92 | 1026.8 |
| 20260831104124 | 38 | 235 | 0.0 | 0.0 | 0.00 | 0.00 | 0.00 | 92 | 1026.6 |
| 20260831103619 | 39 | 235 | 0.0 | 0.0 | 0.00 | 0.00 | 0.00 | 92 | 1026.5 |
| 20260831103115 | 39 | 225 | 0.0 | 0.0 | 0.00 | 0.00 | 0.00 | 92 | 1026.5 |
| 20260831102614 | 38 | 227 | 0.0 | 0.0 | 0.00 | 0.00 | 0.00 | 92 | 1026.6 |
| 20260831102109 | 38 | 239 | 0.0 | 0.0 | 0.00 | 0.00 | 0.00 | 92 | 1026.5 |
| 20260831101609 | 37 | 253 | 0.0 | 0.0 | 0.00 | 0.00 | 0.00 | 92 | 1026.3 |
| 20260831101106 | 38 | 235 | 1.0 | 1.0 | 0.00 | 0.00 | 0.00 | 92 | 1026.5 |
| 20260831100601 | 38 | 256 | 0.0 | 0.0 | 0.00 | 0.00 | 0.00 | 91 | 1026.4 |
| 20260831100057 | 38 | 257 | 0.0 | 0.0 | 0.00 | 0.00 | 0.00 | 91 | 1026.4 |
| 20260831095555 | 38 | 253 | 0.0 | 0.0 | 0.00 | 0.00 | 0.00 | 91 | 1026.3 |